FENGYUN 1C DEB, 30481

Orbit data source: Space-Track

FENGYUN 1C DEB, 30481 is space debris in SSO originally from a launch on Mon, 10 May 1999 UTC launched from the Taiyaun Space Center, China (TSC). Fengyun 1C debris stems from the Chinese weather satellite Fengyun-1C, which was intentionally destroyed by a Chinese anti-satellite missile in 2007. This event dramatically increased the amount of space debris, with thousands of trackable fragments posing hazards to satellites and human spaceflight. The Fengyun 1C debris cloud has become a focal point in discussions about space sustainability and the need for international regulations to prevent the creation of new debris.

Loading next visibility...
Identifier
30481, 1999-025AGT
Orbit
SSO
Country
Flag of CNCN / PRC
Related business
Manufacturer
Unknown
Mission
Spacecraft
Bus & Motor
Unknown
Mass
Unknown
Launch date (UTC)
1999-05-10 (27 years ago)
Launch vehicle
Unknown
Launch site
Taiyaun Space Center, China (TSC)
Object type
Payload
Rocket body
Debris
Shape & HBR
Unknown shape, 0.1 m
Radar Cross Section
Small (<0.1 m²)

Expand to show TLE details & history
Last TLE update: 1 day ago

TLE from 1 day ago
0 FENGYUN 1C DEB
1 30481U 99025AGT 26170.01413102  .00001737  00000-0  42500-3 0  9991
2 30481  98.3236 187.2472 0223194  53.7886 337.5703 14.39772284 11847
Epoch: 2026-06-19T00:20Z
TLE epoch observation values (Epoch: 2026-06-19T00:20:20.920Z)
Latitude
30.05864°
Longitude
-89.91957°
Altitude
616.295 km
Speed
7.631 km/s
True Right ascension
12h 09m 40s
True Declination
29° 54' 24"
Sunlit
Object was in daylight at epoch
Visualization orbit readout
Latitude
Unknown
Longitude
Unknown
Altitude
Unknown
Speed
Unknown
Apparent Right ascension
Unknown
Apparent Declination
Unknown
Sunlit
N/A
Visualization observer readout
Local Sidereal Time
12:20:38
Azimuth
Unknown
Elevation
Unknown
Doppler factor
Unknown
Orbital elements
Apogee altitude
915.6 km
Perigee altitude
597.125 km
Semi-major axis
7,134.5 km
Eccentricity
0.02232
Inclination
98.3236°
RAAN
187.2472°
Arg. of periapsis
53.7886°
True anomaly
336.56869°
Mean anomaly
337.5703°
Eccentric anomaly
337.07211°
Mean motion
3.60162 °/min
Orbital period
99.96 mins
BSTAR
0.000425
Loading maneuver chart data...
Computing Atmospheric mass density...

Documentation

Showing up to 5 results
|